This is the latest recevied weather packets stored in our database for station/object KF0TNT. If no packets are shown the sender has not sent any weather packets the latest 10 day(s).
| Time | Temp. | Humidity | Pressure | Rain* | Wind** | Luminosity | Snow |
|---|---|---|---|---|---|---|---|
| 1777882773 | 5.56° C | 48% | 1014.9 hPa | 0 mm | - | 0 W/m² | - |
| 1777882470 | 6.11° C | 48% | 1015 hPa | 0 mm | - | 0 W/m² | - |
| 1777882166 | 6.11° C | 47% | 1015.3 hPa | 0 mm | - | 0 W/m² | - |
| 1777881863 | 6.67° C | 47% | 1015.1 hPa | 0 mm | - | 0 W/m² | - |
| 1777881559 | 6.67° C | 45% | 1015.5 hPa | 0 mm | - | 0 W/m² | - |
| 1777881256 | 6.67° C | 46% | 1015.3 hPa | 0 mm | - | 0 W/m² | - |
| 1777880954 | 6.67° C | 43% | 1015.3 hPa | 0 mm | - | 0 W/m² | - |
| 1777880652 | 6.67° C | 44% | 1015.4 hPa | 0 mm | - | 0 W/m² | - |
| 1777880350 | 7.22° C | 44% | 1015.5 hPa | 0 mm | - | 0 W/m² | - |
| 1777880048 | 7.22° C | 43% | 1015.3 hPa | 0 mm | - | 0 W/m² | - |
| 1777879746 | 7.78° C | 42% | 1015.4 hPa | 0 mm | - | 0 W/m² | - |
| 1777879442 | 7.22° C | 41% | 1015.6 hPa | 0 mm | - | 0 W/m² | - |
| 1777879140 | 7.22° C | 43% | 1015.5 hPa | 0 mm | - | 0 W/m² | - |
| 1777878836 | 7.22° C | 43% | 1015.6 hPa | 0 mm | - | 0 W/m² | - |
| 1777878534 | 6.67° C | 44% | 1015.5 hPa | 0 mm | - | 0 W/m² | - |
| 1777878230 | 6.67° C | 44% | 1015.6 hPa | 0 mm | - | 0 W/m² | - |
| 1777877926 | 6.67° C | 45% | 1015.6 hPa | 0 mm | - | 0 W/m² | - |
| 1777877623 | 6.67° C | 46% | 1015.9 hPa | 0 mm | - | 0 W/m² | - |
| 1777877320 | 6.67° C | 46% | 1015.9 hPa | 0 mm | - | 0 W/m² | - |
| 1777877017 | 7.22° C | 46% | 1015.6 hPa | 0 mm | - | 0 W/m² | - |
| 1777876715 | 7.22° C | 44% | 1015.8 hPa | 0 mm | - | 0 W/m² | - |
| 1777876412 | 7.22° C | 45% | 1016 hPa | 0 mm | - | 0 W/m² | - |
| 1777876108 | 7.78° C | 43% | 1016 hPa | 0 mm | - | 0 W/m² | - |
| 1777875804 | 7.78° C | 43% | 1015.8 hPa | 0 mm | - | 0 W/m² | - |
| 1777875501 | 7.78° C | 43% | 1015.6 hPa | 0 mm | - | 0 W/m² | - |
* Rain latest hour (hover to see other rain measurements)
** Current wind speed in m/s (hover to see current wind gust speed)